[[{"header":{"parameterUnit":"m.s-1","parameterCategory":1,"la1":30.2991,"la2":30.254,"lo1":-89.0895,"lo2":-89.0444,"dy":0.0017,"dx":0.0017,"nx":28,"ny":28,"refTime":"2025-09-12T09:00:00:Z","depth":0,"parameterNumber":2,"parameterNumberName":"U-component_of_WINDS"},"data":[0,0,0,0,0,0,0,0,0,0,0,0,0,0,0,0,0,0,0,0,0,0,0,0,0,0,0,0,0,0,0,0,0,0,0,0,0,0,0,0,0,0,0,0,0,0,0,0,0,0,0,0,0,0,0,0,0,0,0.339,0.3391,0,0.3458,0.3458,0.3459,0.3495,0.3495,0.3495,0.3495,0.3561,0.3562,0.3564,0,0,0,0,0,0,0,0,0,0,0,0,0,0.3288,0.3289,0.339,0.3391,0.3392,0.3458,0.3458,0.3459,0.3495,0.3495,0.3495,0.3495,0.356,0.3562,0.3564,0,0,0,0,0,0,0,0,0,0,0,0,0,0.3341,0.329,0.339,0.3418,0.3421,0.3457,0.3458,0.346,0.3495,0.3495,0.3495,0.3495,0.356,0.3562,0.3565,0.3578,0,0,0.3572,0.3573,0,0,0,0,0,0,0,0,0.3338,0.3345,0.3413,0.3416,0.3419,0.3468,0.3446,0.3499,0.3495,0.3467,0.3495,0.3496,0.353,0.3535,0.3547,0.3581,0.3583,0.3572,0.3574,0.3575,0.3576,0,0,0,0,0,0,0,0.3334,0.3342,0.3417,0.3414,0.3418,0.3425,0.3433,0.3457,0.3497,0.3469,0.3472,0.348,0.3531,0.3544,0.3549,0.3584,0.3572,0.3575,0.3576,0.3577,0.3631,0.3631,0,0,0,0,0,0,0.3327,0.3339,0.3414,0.3419,0.3378,0.3427,0.3436,0.3452,0.3496,0.3503,0.348,0.3481,0.354,0.3546,0.3551,0.3569,0.3575,0.3577,0.3579,0.3631,0.3631,0.3631,0,0,0,0,0,0,0.3324,0.3333,0.3412,0.338,0.339,0.3429,0.3447,0.3454,0.3467,0.3504,0.3511,0.3486,0.354,0.3548,0.3571,0.3572,0.3578,0.3581,0.3631,0.3631,0.3631,0.3605,0,0,0,0,0,0,0.3321,0.3332,0.3339,0.338,0.3392,0.3431,0.3447,0.3455,0.3471,0.3474,0.3512,0.3518,0.3541,0.3567,0.3573,0.3575,0.3583,0.3632,0.3631,0.3631,0.3606,0.3604,0.3603,0,0,0,0,0,0.3318,0.3328,0.3339,0.3348,0.3401,0.3432,0.3438,0.3466,0.3471,0.3477,0.3501,0.3517,0.3571,0.3569,0.3577,0.3579,0.3632,0.3631,0.3631,0.3607,0.3605,0.3603,0,0,0,0,0,0,0.3284,0.3334,0.3346,0.337,0.3397,0.3438,0.3446,0.3462,0.3486,0.3488,0.3519,0.3527,0.3547,0.3566,0.3563,0.3594,0.3603,0.3604,0.3581,0.358,0.3578,0.3573,0.3585,0,0,0,0,0,0.328,0.3302,0.3344,0.3361,0.3373,0.3407,0.3422,0.344,0.3468,0.3479,0.3505,0.3531,0.3553,0.3567,0.359,0.3609,0.3617,0.3614,0.3612,0.3611,0.3612,0.3622,0.3621,0.3631,0.3631,0.3631,0,0,0.3271,0.3301,0.3313,0.3355,0.3377,0.3398,0.3416,0.3438,0.3453,0.3482,0.3506,0.3526,0.3556,0.3577,0.3587,0.3593,0.3611,0.3611,0.3609,0.3611,0.3622,0.3621,0.362,0.3631,0.3631,0.3631,0,0,0.3266,0.329,0.3307,0.333,0.3364,0.3387,0.3391,0.3429,0.3444,0.3469,0.349,0.3508,0.3547,0.3568,0.3583,0.3585,0.36,0.3591,0.3582,0.3592,0.3591,0.359,0.3591,0.359,0.3592,0.3592,0.3591,0,0.325,0.3284,0.3314,0.3334,0.3352,0.338,0.3396,0.3416,0.3455,0.3466,0.3472,0.3521,0.3543,0.3569,0.3569,0.3581,0.3585,0.3587,0.3589,0.3589,0.3588,0.3589,0.3589,0.359,0.359,0.3591,0.3591,0,0.3262,0.3285,0.3294,0.3333,0.3352,0.337,0.3401,0.3416,0.3433,0.3454,0.3478,0.3506,0.3535,0.3542,0.3559,0.357,0.3573,0.3583,0.3593,0.3586,0.3587,0.3587,0.3588,0.3589,0.3589,0.359,0,0,0.3238,0.3293,0.3296,0.3314,0.3354,0.3371,0.339,0.342,0.3431,0.3457,0.3473,0.3505,0.3515,0.3532,0.3551,0.356,0.3559,0.3569,0.357,0.3566,0.3573,0.3565,0.3564,0.3569,0.3569,0.3569,0.357,0,0.3238,0.3275,0.3302,0.3328,0.335,0.3376,0.3392,0.3418,0.3438,0.3458,0.348,0.3502,0.3513,0.3524,0.3534,0.3557,0.356,0.3557,0.3583,0.3584,0.3575,0.3565,0.3557,0.3556,0.3571,0.3571,0.3571,0,0.3243,0.3269,0.3298,0.3335,0.3345,0.336,0.3389,0.3407,0.3436,0.345,0.347,0.3489,0.3509,0.3516,0.3543,0.354,0.3552,0.3565,0.3566,0.3569,0.3577,0.3568,0.3557,0.3557,0.3572,0.3572,0.3572,0,0.3222,0.3264,0.3287,0.3302,0.3346,0.3355,0.3374,0.3403,0.3418,0.3443,0.3453,0.3479,0.3494,0.3513,0.3538,0.3541,0.3562,0.3572,0.3574,0.3573,0.3577,0.3576,0.3567,0.3585,0.3585,0.3585,0.3585,0,0.3219,0.3235,0.3279,0.3292,0.3311,0.3341,0.3358,0.3379,0.3404,0.3422,0.3446,0.3461,0.3494,0.3512,0.3532,0.3551,0.3557,0.3568,0.3573,0.3566,0.3565,0.3575,0.3575,0.3585,0.3585,0.3585,0.3585,0,0.3199,0.3229,0.3255,0.3295,0.3305,0.3317,0.3351,0.3364,0.3386,0.3407,0.3414,0.3447,0.3471,0.3498,0.353,0.3543,0.356,0.3568,0.3551,0.3554,0.3554,0.3554,0.3551,0.3552,0.3569,0.3568,0.3568,0,0.3195,0.3209,0.325,0.3264,0.3283,0.3305,0.3321,0.3351,0.3367,0.3401,0.341,0.3435,0.3458,0.3493,0.352,0.3544,0.3552,0.3549,0.3556,0.3548,0.3552,0.3551,0.3552,0.3548,0.3547,0.3547,0.3547,0,0.3185,0.3199,0.3223,0.3252,0.3271,0.3295,0.3319,0.3329,0.3363,0.338,0.3405,0.3422,0.3455,0.348,0.3507,0.3525,0.3541,0.3545,0.3546,0.3539,0.3529,0.3534,0.3546,0.3545,0.3545,0.3545,0.3545,0.3545,0.3173,0.3186,0.3218,0.3243,0.3265,0.3287,0.3302,0.3326,0.3348,0.3378,0.3394,0.3418,0.3446,0.3485,0.3502,0.352,0.3526,0.3528,0.3529,0.3529,0.3527,0.3526,0.3525,0.3525,0.3526,0.3526,0.3526,0,0.3164,0.3186,0.3209,0.3243,0.3263,0.3278,0.3305,0.332,0.3342,0.3367,0.3389,0.3417,0.3441,0.3469,0.3494,0.3504,0.3512,0.3509,0.3509,0.3512,0.3521,0.3517,0.3502,0.3502,0.3502,0.3502,0.3502,0.3502,0.3162,0.3185,0.3202,0.3236,0.3257,0.3282,0.3297,0.3317,0.3337,0.3368,0.3389,0.3407,0.3433,0.346,0.3483,0.349,0.3498,0.3493,0.3503,0.351,0.3512,0.3514,0.351,0.3495,0.3495,0.3494,0.3494,0.3494]},{"header":{"parameterUnit":"m.s-1","parameterCategory":1,"la1":30.2991,"la2":30.254,"lo1":-89.0895,"lo2":-89.0444,"dy":0.0017,"dx":0.0017,"nx":28,"ny":28,"refTime":"2025-09-12T09:00:00:Z","depth":0,"parameterNumber":3,"parameterNumberName":"V-component_of_WINDS"},"data":[0,0,0,0,0,0,0,0,0,0,0,0,0,0,0,0,0,0,0,0,0,0,0,0,0,0,0,0,0,0,0,0,0,0,0,0,0,0,0,0,0,0,0,0,0,0,0,0,0,0,0,0,0,0,0,0,0,0,1.3349,1.3345,0,1.3049,1.3045,1.3042,1.2888,1.2887,1.2887,1.2887,1.2571,1.2563,1.2555,0,0,0,0,0,0,0,0,0,0,0,0,0,1.378,1.3773,1.3349,1.3345,1.3341,1.3049,1.3045,1.3041,1.2888,1.2887,1.2887,1.2887,1.2574,1.2564,1.2554,0,0,0,0,0,0,0,0,0,0,0,0,0,1.3547,1.377,1.335,1.323,1.3216,1.305,1.3045,1.304,1.2888,1.2887,1.2887,1.2887,1.2577,1.2565,1.2553,1.248,0,0,1.2515,1.2509,0,0,0,0,0,0,0,0,1.3561,1.3532,1.3251,1.3238,1.3222,1.3006,1.3081,1.2852,1.2888,1.3012,1.2887,1.2887,1.2715,1.2691,1.2635,1.2465,1.2451,1.2513,1.2506,1.2501,1.2497,0,0,0,0,0,0,0,1.3577,1.3544,1.323,1.3247,1.323,1.3188,1.3155,1.3037,1.2868,1.3001,1.2989,1.2957,1.2707,1.2648,1.2627,1.2447,1.2514,1.2503,1.2495,1.249,1.2198,1.2197,0,0,0,0,0,0,1.3614,1.3558,1.3239,1.3221,1.3395,1.3181,1.3143,1.3075,1.2869,1.2838,1.2957,1.295,1.2669,1.2641,1.2615,1.2513,1.2501,1.2489,1.2482,1.2198,1.2198,1.2197,0,0,0,0,0,0,1.3624,1.3587,1.3251,1.3386,1.334,1.3173,1.3098,1.3069,1.301,1.2836,1.2804,1.2928,1.2668,1.2632,1.2514,1.25,1.2483,1.2472,1.2198,1.2198,1.2197,1.2312,0,0,0,0,0,0,1.3637,1.3591,1.3564,1.3387,1.3334,1.3159,1.3097,1.3064,1.299,1.2978,1.28,1.277,1.2665,1.2534,1.2502,1.2483,1.2462,1.2199,1.2198,1.2198,1.2309,1.2316,1.2322,0,0,0,0,0,1.3653,1.3607,1.3564,1.3526,1.3297,1.3159,1.3128,1.3011,1.2989,1.2959,1.2847,1.2776,1.2508,1.2523,1.2486,1.2463,1.2199,1.2198,1.2198,1.2306,1.2314,1.2322,0,0,0,0,0,0,1.3784,1.3582,1.3531,1.3428,1.3312,1.3133,1.3091,1.3024,1.2909,1.2903,1.2759,1.272,1.2615,1.2527,1.2547,1.238,1.2346,1.2338,1.2441,1.2447,1.2454,1.2476,1.2452,0,0,0,0,0,1.3802,1.371,1.3537,1.3462,1.3407,1.326,1.3195,1.3115,1.2988,1.2937,1.2816,1.2693,1.258,1.2509,1.2396,1.2296,1.2253,1.2262,1.2268,1.2274,1.2268,1.2205,1.2206,1.2195,1.2195,1.2195,0,0,1.3837,1.3714,1.3664,1.3485,1.3386,1.329,1.3219,1.3121,1.3048,1.2921,1.2802,1.271,1.2562,1.2452,1.2398,1.2376,1.2262,1.2273,1.228,1.227,1.2205,1.2206,1.2207,1.2194,1.2195,1.2195,0,0,1.385,1.375,1.3676,1.3578,1.343,1.3332,1.3315,1.3145,1.3079,1.2959,1.2861,1.277,1.2581,1.2479,1.2402,1.2377,1.2306,1.2344,1.2376,1.2317,1.2318,1.2318,1.2306,1.2304,1.2339,1.2339,1.2339,0,1.391,1.3766,1.3645,1.3553,1.3475,1.3359,1.328,1.319,1.3012,1.296,1.2939,1.2697,1.259,1.2453,1.2447,1.239,1.2363,1.2363,1.2328,1.2327,1.2325,1.2312,1.2308,1.2345,1.2344,1.2343,1.2343,0,1.3846,1.3747,1.3704,1.3537,1.3455,1.337,1.3233,1.3164,1.3091,1.2995,1.2872,1.2739,1.2597,1.2558,1.2485,1.241,1.2401,1.2357,1.2319,1.2334,1.2319,1.2313,1.2352,1.235,1.2349,1.2347,0,0,1.3933,1.3701,1.3687,1.3609,1.3437,1.3356,1.3264,1.3127,1.3069,1.295,1.2867,1.2709,1.2667,1.258,1.2494,1.2443,1.2427,1.2403,1.2397,1.241,1.2333,1.2367,1.2363,1.238,1.2379,1.2378,1.2345,0,1.392,1.3754,1.3642,1.3518,1.3423,1.3311,1.323,1.3114,1.3022,1.2925,1.2821,1.2711,1.2664,1.261,1.2555,1.2442,1.241,1.2442,1.2298,1.2295,1.2337,1.2356,1.2391,1.2366,1.2339,1.2338,1.2337,0,1.3882,1.3769,1.3637,1.3473,1.3428,1.3359,1.3223,1.3134,1.2998,1.2934,1.2838,1.2751,1.2646,1.262,1.2471,1.2496,1.243,1.2366,1.2362,1.2341,1.2315,1.2334,1.2356,1.2352,1.2327,1.2328,1.2328,0,1.3956,1.377,1.3666,1.3603,1.341,1.3363,1.328,1.3145,1.3069,1.295,1.2898,1.2768,1.2696,1.2595,1.2474,1.2467,1.2337,1.2301,1.2277,1.228,1.2253,1.2256,1.2262,1.2216,1.2216,1.2216,1.2216,0,1.3952,1.3875,1.3696,1.3632,1.3541,1.3412,1.3324,1.3231,1.3112,1.3025,1.292,1.284,1.2686,1.2586,1.249,1.238,1.2348,1.2291,1.2266,1.2299,1.2306,1.2252,1.225,1.2215,1.2215,1.2215,1.2215,0,1.4018,1.3896,1.3775,1.3603,1.3558,1.3498,1.3349,1.328,1.3183,1.3074,1.3041,1.2886,1.2763,1.2633,1.2465,1.24,1.2294,1.226,1.234,1.2326,1.2309,1.2312,1.2279,1.2267,1.2232,1.2233,1.2233,0,1.4022,1.396,1.3782,1.3718,1.3639,1.3536,1.3459,1.3329,1.3252,1.3093,1.3043,1.2913,1.2802,1.261,1.2481,1.2351,1.2312,1.2309,1.2291,1.2326,1.2308,1.2313,1.2304,1.2314,1.2316,1.2316,1.2317,0,1.4042,1.3985,1.3879,1.3752,1.3663,1.3556,1.3444,1.3397,1.3244,1.3163,1.3037,1.2951,1.2781,1.2652,1.2507,1.2417,1.234,1.2324,1.2311,1.2343,1.2392,1.2363,1.2354,1.2325,1.2324,1.2324,1.2323,1.2323,1.4075,1.4014,1.3879,1.3764,1.3667,1.3565,1.3492,1.3386,1.328,1.3133,1.3062,1.2936,1.2799,1.2597,1.251,1.2407,1.2384,1.2366,1.2361,1.2358,1.2366,1.2411,1.238,1.238,1.2379,1.2379,1.2379,0,1.4086,1.3995,1.3891,1.3739,1.3648,1.3587,1.346,1.3387,1.3278,1.3159,1.3052,1.2907,1.2781,1.2643,1.2507,1.2451,1.2413,1.242,1.2421,1.2401,1.2395,1.2418,1.2454,1.2454,1.2454,1.2454,1.2454,1.2454,1.4082,1.3975,1.3902,1.3744,1.3651,1.3529,1.3461,1.3366,1.327,1.3113,1.3009,1.2921,1.2792,1.2647,1.2527,1.2489,1.2443,1.2461,1.2412,1.2408,1.2402,1.2397,1.2418,1.2452,1.2452,1.2427,1.2427,1.2426]}]]